Regional Weather Roundup
Issued by NWS Portland, ME

Home | Current Version | Previous Version | Text Only | Print | Product List | Glossary On
Versions: 1 2 3 4 5 6 7 8 9 10 11 12 13 14 15 16 17 18 19 20 21 22 23 24 25 26 27 28 29 30 31 32 33 34 35 36 37 38 39 40 41 42 43 44 45 46 47 48 49 50
000
ASUS41 KGYX 210610
RWRGYX
WEATHER ROUNDUP FOR MAINE AND NEW HAMPSHIRE
NATIONAL WEATHER SERVICE GRAY ME
200 AM EDT SUN SEP 21 2014

MEZ002-005-006-010-012-015-018-020-021-024-026-027-029-210700-
MAINE

CITY           SKY/WX    TMP DP  RH WIND       PRES   REMARKS
PORTLAND       CLEAR     58  54  86 SW6       30.04F
6HR MIN TEMP:  58; 6HR MAX TEMP:  64;

SANFORD        CLEAR     54  48  82 SW3       30.05F
BAR HARBOR     CLEAR     61  57  88 SW9       30.05S
WISCASSET      CLEAR     61  55  81 SW8       30.06S
6HR MIN TEMP:  61; 6HR MAX TEMP:  63;

ROCKLAND       CLEAR     61  55  82 SW10      30.04F
FRYEBURG       MOCLDY    57  53  86 S6        30.02F
6HR MIN TEMP:  55; 6HR MAX TEMP:  59;

LEWISTONAUBURN CLEAR     57  52  82 S9        30.03F
AUGUSTA        CLEAR     57  54  89 S8        30.03F
6HR MIN TEMP:  56; 6HR MAX TEMP:  58;

WATERVILLE     PTCLDY    55  50  82 S6        29.97F
BANGOR         MOCLDY    59  53  80 S12       30.02F
6HR MIN TEMP:  57; 6HR MAX TEMP:  59;

GREENVILLE       N/A     56  53  90 VRB6      29.96F
6HR MIN TEMP:  53; 6HR MAX TEMP:  56;

MILLINOCKET    CLEAR     56  53  90 S9G20     29.98F
6HR MIN TEMP:  56; 6HR MAX TEMP:  57;

HOULTON        CLOUDY    57  52  83 S10G18    29.96F
6HR MIN TEMP:  55; 6HR MAX TEMP:  57;

PRESQUE ISLE   MOCLDY    55  48  76 S10       29.91F
6HR MIN TEMP:  55; 6HR MAX TEMP:  57;

FRENCHVILLE    CLOUDY    52  50  93 S9        29.87F
6HR MIN TEMP:  50; 6HR MAX TEMP:  52; 6HR PCP:  0.03;

CARIBOU        MOCLDY    55  51  86 S9        29.90F
6HR MIN TEMP:  54; 6HR MAX TEMP:  56; 6HR PCP:  0.02;

$$

NHZ002-005-008-009-011-012-014-210700-
NEW HAMPSHIRE

CITY           SKY/WX    TMP DP  RH WIND       PRES   REMARKS
PORTSMOUTH     PTCLDY    59  55  87 S6        30.04F
ROCHESTER      CLEAR     55  52  89 CALM      30.05F
6HR MIN TEMP:  54; 6HR MAX TEMP:  64;

NASHUA         CLEAR     56  55  96 CALM      30.06F
MANCHESTER     CLEAR     58  53  84 S5        30.04F
6HR MIN TEMP:  57; 6HR MAX TEMP:  67;

CONCORD        CLEAR     53  52  96 SE5       30.05F
6HR MIN TEMP:  53; 6HR MAX TEMP:  64;

LACONIA        CLEAR     59  52  77 SW13      30.02F
PLYMOUTH       CLOUDY    51  51 100 CALM      30.02F FOG
BERLIN         CLOUDY    57  54  89 S5        29.98F
6HR MIN TEMP:  49; 6HR MAX TEMP:  59;

WHITEFIELD     CLOUDY    64  53  67 S3        29.99F
6HR MIN TEMP:  58; 6HR MAX TEMP:  64;

JAFFREY        CLOUDY    60  57  89 VRB6      30.06F
6HR MIN TEMP:  56; 6HR MAX TEMP:  63;

LEBANON        CLEAR     60  54  80 S8        30.00F
6HR MIN TEMP:  60; 6HR MAX TEMP:  66;

MT WASHINGTON  FOG       45  45 100 W59G68      N/A  VSB 0
6HR MIN TEMP:  42; 6HR MAX TEMP:  45;

$$

VTZ005-007-008-210700-
VERMONT

CITY           SKY/WX    TMP DP  RH WIND       PRES   REMARKS
ST JOHNSBURY     N/A     62  54  74 MISG      29.96F
MONTPELIER     PTCLDY    59  55  87 SE10      30.00F
BURLINGTON     PTCLDY    65  56  72 S21G29    29.90F
$$

MAZ007-012-024-CTZ003-RIZ002-NYZ038-NYZ072-210700-
SOUTHERN NEW ENGLAND AND NY

CITY           SKY/WX    TMP DP  RH WIND       PRES   REMARKS
BOSTON         CLOUDY    63  57  81 S8        30.06F
WORCESTER      LGT RAIN  61  58  90 S17G23    30.07F
NANTUCKET      MOCLDY    62  59  90 SE6       30.09F
PROVIDENCE     CLOUDY    62  57  83 CALM      30.07F
HARTFORD       LGT RAIN  62  59  90 S3        30.04F FOG
ALBANY         CLEAR     64  58  80 S16       29.97F
NEW YORK CITY  LGT RAIN  68  64  87 CALM      30.01F
$$

ANZ081-ANZ082-ANZ150-NHZ014-MEZ023>029-210700-
COASTAL MARINE OBSERVATIONS

STATION/POSITION TIME  TEMP    WIND        PRES    WAVE
                       AIR SEA DIR/SP/G            HT/PER
                 (UTC) (F)     (DEG/KT/KT) (MB)    (FT/S)
MATINICUS ROCK   0600          190/ 19/ 20 1017.1F
PORTLAND WX BUOY 0550   60 58  210/ 14/ 16 1017.1F   4/ 6
WELLS            0500   58 57  230/  5/  6 1017.2F
ISLE OF SHOALS   0600   61     200/ 13/ 13 1017.0F
JEFFREYS LEDGE   0521      60                N/A     3/ 5
CASHES LEDGE BUO 0550   63 61              1017.8F   4/ 6
$$

.............KEY..............
   WCI - WIND CHILL
   TC  - TEMPERATURE IN CELSIUS
   VSB - VISIBILITY IN MILES
   HX  - HEAT INDEX
   FAIR- INDICATES FEW OR NO CLOUDS BELOW 12,000 FT, WITH NO
         SIGNIFICANT WEATHER AND/OR OBSTRUCTIONS TO VISIBILITY.





USA.gov is the U.S. government's official web portal to all federal, state and local government web resources and services.